User: anonymous
Location: Caltech
(34.1382°N, 118.1253°W)
Time: 23:12:14
(UTC-07:00)
Language:

RESURS DK-1 - Orbit

View from above orbital plane
View from above orbital plane
View from above satellite
View from above satellite

Ground track
Ground track

The orbit data is extracted from the following two-line orbital elements,

1 29228U 06021A   14241.83336573  .00000630  00000-0  57099-4 0  1717
2 29228 069.9372 177.1908 0002296 136.3847 256.1684 15.00772520454627
Epoch (UTC): 29 August 2014 20:00:02
Eccentricity: 0.0002296
inclination: 69.9372°
perigee height: 563 km
apogee height: 566 km
right ascension of ascending node: 177.1908°
argument of perigee: 136.3847°
revolutions per day: 15.00772520
mean anomaly at epoch: 256.1684°
orbit number at epoch: 45462

The dashed part of the orbit path shows where the satellite is in the earth's shadow,  

DLR